Wind_Speed
3 3 3 3 3 3 4 4 4 4 4 4 3 4 4 4 4 3 4 4 4 4 4 5 5 7 8 8 8 8 8 8 7 6 6 5 5 5 5 5 5 5 4
4 4 4 4 4 4 4 5 4 4 4 4 3 4 4 4 5 5 5 5 5 5 6 5 6 7 9 10 9 9 9 9 8 8 7 6 6 6 6 6 6 5 5
4 4 4 4 4 5 5 5 4 4 5 5 5 5 5 5 5 6 5 5 6 6 6 6 5 6 8 10 10 10 9 9 9 9 8 7 7 7 6 6 6 6 6
5 4 4 4 4 5 5 5 5 5 5 5 5 5 5 6 6 6 6 6 6 5 5 5 4 4 6 8 8 9 9 8 9 9 9 8 8 8 8 7 7 8 8
5 5 5 4 5 5 6 6 6 6 6 6 5 5 6 6 6 6 6 6 6 5 5 5 4 4 4 6 8 8 9 9 9 9 9 9 9 9 8 8 8 8 8
5 5 5 5 5 5 6 6 6 6 6 6 6 6 6 7 7 6 6 6 6 6 6 5 5 5 5 7 8 8 9 9 9 9 9 10 10 9 9 9 9 9 8
5 5 5 5 6 6 6 6 6 6 6 6 7 7 7 7 7 7 7 7 7 7 6 6 6 6 6 7 8 9 9 9 10 10 9 10 10 10 10 10 9 9 9
5 6 6 6 6 6 7 7 7 6 6 7 7 7 7 8 8 8 8 8 8 8 7 7 7 8 7 8 8 9 10 10 10 10 11 11 11 12 12 11 10 10 9
6 6 7 7 6 7 7 7 7 7 7 7 7 7 8 8 9 9 9 10 10 10 9 8 8 7 8 8 9 10 10 10 10 10 11 11 12 12 11 11 11 11 11
6 7 7 7 7 7 7 7 7 7 7 7 8 8 8 8 9 9 9 9 10 10 10 9 8 8 8 8 9 9 9 10 10 10 10 10 11 11 11 11 11 12 12
6 7 7 7 7 8 8 7 7 7 7 8 8 9 9 9 8 8 8 9 9 9 9 9 9 9 8 9 9 10 10 10 10 10 10 10 11 11 11 11 11 12 12
7 7 8 8 8 8 8 8 8 8 8 8 8 9 9 9 9 9 9 8 8 8 8 8 8 9 9 9 9 10 10 10 11 11 11 11 11 11 11 11 11 11 11
7 8 8 9 9 8 8 8 8 8 8 8 8 8 9 9 9 9 8 8 8 8 8 8 9 9 9 9 9 9 10 10 10 10 10 11 10 10 10 11 11 11 12
7 7 8 8 8 8 8 8 8 8 8 8 8 8 8 9 9 8 8 8 8 8 8 8 8 9 8 8 9 9 10 10 10 10 10 9 10 10 10 10 11 12 12
7 7 7 8 8 8 8 8 8 8 8 8 8 8 7 7 7 7 7 8 7 7 8 8 8 8 8 8 9 9 9 10 10 10 10 9 9 10 11 11 12 13 13
7 6 7 7 7 8 8 8 8 8 7 7 7 7 7 7 7 7 7 7 7 7 7 8 8 8 7 8 9 9 9 10 11 10 10 10 10 10 11 11 12 13 13
7 7 7 7 7 7 8 8 8 7 7 7 7 7 7 6 6 6 6 6 6 7 7 7 8 8 8 8 8 8 9 9 10 11 11 11 11 11 11 11 12 11 11
7 7 7 7 7 7 8 8 7 7 7 7 7 7 7 6 6 6 6 6 6 7 7 8 8 8 8 8 8 8 8 9 10 10 10 11 11 11 11 11 11 10 10
7 7 7 7 7 7 7 7 7 7 6 6 6 6 6 6 6 6 6 6 7 7 7 7 7 7 7 7 8 8 8 9 9 10 10 10 10 10 10 9 9 9 9
8 8 8 8 8 7 7 8 7 7 6 6 6 6 6 6 6 6 6 6 6 6 6 6 6 7 7 8 8 8 8 8 8 9 9 9 10 9 9 10 9 9 9
8 9 8 8 8 7 7 7 7 7 6 5 5 6 6 6 6 6 6 6 6 7 7 6 7 7 7 7 7 8 8 8 7 8 9 9 10 10 9 10 10 10 9
8 9 8 8 8 7 7 7 7 6 6 5 5 6 6 5 5 5 5 5 6 6 7 7 7 7 7 7 8 8 8 7 7 7 7 8 9 9 9 9 10 10 10
8 9 9 8 8 7 7 7 7 6 6 6 6 6 6 5 5 5 5 5 5 5 6 6 6 6 7 7 7 8 8 7 6 7 7 7 8 8 7 8 8 8 9
9 9 8 8 8 8 7 7 7 6 6 6 6 6 5 5 5 5 6 5 5 5 5 5 6 6 6 6 6 7 6 7 7 7 7 7 7 7 7 7 8 8 9
9 9 9 8 8 7 7 7 7 7 7 6 6 5 5 5 5 5 5 5 5 6 6 6 6 7 7 7 7 7 6 6 6 7 7 7 7 7 7 8 8 8 9
10 9 9 9 8 8 8 7 7 8 7 7 6 6 5 5 5 5 5 6 6 6 7 7 7 8 7 7 7 7 7 7 6 7 7 7 7 7 7 7 7 8 8
Wind_Direction
335 328 330 329 329 321 312 307 300 293 283 278 293 290 271 271 278 281 291 279 274 270 263 252 244 234 225 220 217 219 218 217 213 212 206 201 199 190 190 196 199 193 196
333 326 321 322 321 315 311 304 298 289 288 283 279 283 278 275 277 282 284 282 275 266 265 263 254 248 233 223 220 222 222 220 219 217 213 213 215 210 211 212 214 215 216
332 327 321 317 314 307 304 299 297 299 296 291 278 274 275 273 277 272 272 275 275 269 265 268 275 258 226 217 217 220 220 222 223 221 221 221 223 223 222 220 225 228 224
329 326 320 316 311 307 303 297 292 297 295 294 285 278 278 278 278 275 277 273 274 276 271 275 284 255 216 212 219 220 221 223 226 226 226 228 231 231 229 228 231 233 233
332 327 318 314 316 313 309 302 293 290 287 285 280 278 282 281 278 277 274 270 267 271 270 270 265 248 230 227 227 222 221 224 227 232 233 233 234 234 235 235 238 239 241
330 329 327 324 321 316 309 302 296 290 287 285 280 277 278 280 279 278 277 273 272 270 263 263 257 250 242 234 233 230 229 229 231 234 239 240 240 240 234 237 241 244 246
320 322 322 321 316 313 310 306 300 294 292 290 284 280 279 280 280 276 277 274 272 269 262 259 255 258 249 240 236 235 234 238 238 236 237 239 240 241 238 240 244 247 251
315 317 319 320 316 312 310 307 303 297 293 292 289 282 278 275 278 277 277 275 274 273 269 261 257 258 251 244 238 236 238 243 241 241 244 245 247 245 243 243 246 249 253
311 313 316 318 316 312 309 309 306 300 293 288 287 284 279 278 280 279 278 276 274 273 268 263 260 255 250 246 242 239 239 239 240 244 246 248 250 248 246 245 249 251 253
311 309 309 313 315 315 312 309 307 304 296 288 285 285 285 287 284 283 280 278 274 271 267 262 259 254 249 245 243 243 243 242 243 248 248 248 251 249 251 255 255 258 259
309 306 305 307 307 312 313 311 309 308 302 294 289 288 288 291 288 285 282 279 274 267 264 262 258 254 254 248 245 243 243 248 251 253 253 251 251 251 252 254 256 257 259
307 306 303 302 303 306 307 306 307 306 303 296 293 292 287 285 283 284 280 274 269 265 261 261 256 254 254 253 251 247 245 248 249 252 252 252 253 254 255 258 261 259 258
305 305 303 299 301 302 301 302 303 303 300 297 294 290 286 283 284 282 279 273 269 268 262 258 257 256 254 256 254 251 248 248 244 247 248 251 253 254 255 258 259 262 263
307 305 304 303 303 304 301 300 303 303 300 296 296 294 290 287 284 282 278 275 275 271 265 260 262 256 256 257 257 256 252 251 246 248 251 253 255 252 254 257 260 263 266
317 313 308 310 310 305 303 302 302 302 301 298 302 300 293 290 287 282 277 272 270 271 271 273 266 262 262 256 258 258 259 253 250 250 250 254 256 256 259 261 264 266 266
323 319 316 315 314 308 306 305 304 302 301 299 301 301 297 296 294 288 281 271 268 270 271 271 272 271 271 264 260 259 255 254 254 254 255 253 255 259 261 265 267 267 262
327 325 321 319 315 310 305 303 303 302 298 297 297 297 296 294 291 286 280 274 272 275 275 272 269 268 268 269 268 265 257 255 258 256 255 256 258 263 265 266 268 266 258
327 326 323 321 317 312 307 305 306 307 304 300 296 295 292 290 288 286 278 275 274 276 279 277 273 269 267 268 270 269 264 261 262 259 258 258 260 263 264 267 267 264 259
325 324 321 319 317 315 309 309 310 309 309 306 298 295 291 287 286 283 281 277 274 276 280 277 273 274 271 269 267 268 268 265 259 260 263 264 265 268 269 268 269 268 258
324 322 319 317 316 313 310 310 314 310 307 305 301 293 288 286 282 279 280 280 280 280 280 279 277 276 274 273 271 269 267 266 264 263 264 267 269 268 265 264 263 265 260
320 320 319 315 314 313 313 313 315 310 309 309 304 297 291 284 279 273 275 277 278 279 278 279 278 279 280 281 277 273 271 267 268 269 268 269 269 265 264 262 261 260 261
316 316 315 313 312 311 313 313 309 307 308 307 310 306 297 288 284 281 279 280 279 279 278 278 280 280 281 280 278 279 275 270 271 270 272 275 275 274 268 265 260 257 260
313 314 312 312 307 304 306 310 307 306 307 310 308 306 299 292 289 285 283 286 288 285 283 281 284 285 283 281 279 278 271 264 268 266 267 268 271 270 268 271 267 265 268
304 309 308 306 305 303 301 304 306 305 304 310 311 304 300 293 287 286 286 285 287 289 293 293 293 290 289 284 283 281 273 268 266 268 267 268 270 271 268 267 268 269 268
298 303 303 301 299 298 298 298 299 297 297 303 305 304 300 293 288 286 286 283 286 289 292 293 295 295 292 288 287 286 280 275 271 270 271 270 271 270 269 267 271 271 267
294 297 297 295 295 294 294 293 292 292 290 292 294 295 301 301 288 283 280 283 285 289 289 289 290 290 288 284 286 283 281 278 274 273 270 270 273 274 275 275 276 277 275
Height
5874 5873 5872 5872 5871 5871 5871 5870 5870 5870 5869 5869 5869 5869 5868 5868 5867 5867 5867 5866 5865 5865 5864 5863 5863 5862 5862 5863 5865 5866 5867 5868 5868 5869 5869 5869 5869 5870 5870 5871 5871 5871 5872
5873 5872 5871 5871 5871 5870 5870 5870 5869 5869 5868 5868 5868 5868 5868 5867 5867 5867 5866 5866 5865 5864 5864 5863 5861 5858 5857 5860 5863 5865 5866 5867 5867 5868 5868 5869 5869 5870 5870 5871 5871 5871 5872
5872 5871 5871 5870 5870 5869 5869 5869 5869 5868 5868 5868 5868 5867 5867 5866 5866 5866 5865 5865 5864 5864 5863 5862 5859 5854 5852 5857 5861 5864 5865 5866 5866 5867 5868 5868 5868 5869 5869 5870 5870 5871 5871
5871 5870 5870 5869 5869 5869 5868 5868 5868 5868 5867 5867 5867 5866 5866 5865 5865 5865 5864 5864 5864 5863 5862 5861 5859 5856 5855 5858 5861 5862 5864 5864 5865 5866 5867 5867 5868 5868 5869 5869 5870 5870 5870
5870 5869 5869 5868 5868 5868 5867 5867 5867 5866 5866 5866 5866 5865 5865 5864 5864 5864 5863 5863 5863 5862 5862 5861 5860 5859 5859 5860 5861 5862 5863 5863 5864 5865 5866 5866 5867 5867 5867 5868 5868 5869 5869
5869 5868 5868 5867 5867 5867 5866 5866 5865 5865 5865 5865 5864 5864 5864 5863 5862 5862 5862 5862 5861 5861 5861 5860 5860 5860 5860 5860 5860 5861 5861 5862 5863 5864 5864 5865 5865 5866 5866 5867 5867 5867 5868
5868 5867 5867 5866 5866 5865 5865 5864 5864 5864 5864 5863 5863 5863 5862 5861 5861 5860 5860 5860 5860 5859 5859 5859 5859 5859 5859 5859 5859 5860 5860 5861 5862 5862 5863 5863 5864 5864 5865 5865 5865 5866 5866
5867 5866 5866 5865 5865 5864 5864 5863 5863 5862 5862 5862 5861 5861 5860 5860 5859 5859 5859 5858 5858 5858 5857 5858 5858 5858 5858 5858 5858 5858 5859 5859 5860 5860 5861 5862 5862 5862 5863 5863 5864 5864 5864
5866 5865 5865 5864 5864 5863 5863 5862 5861 5861 5860 5860 5859 5859 5859 5858 5858 5857 5857 5856 5856 5856 5856 5856 5856 5856 5856 5856 5856 5857 5857 5858 5858 5859 5859 5860 5860 5860 5861 5861 5862 5862 5863
5865 5864 5864 5863 5863 5862 5861 5860 5860 5859 5859 5858 5858 5857 5857 5856 5856 5855 5855 5854 5854 5854 5854 5854 5854 5854 5854 5854 5854 5855 5855 5856 5856 5856 5857 5857 5858 5858 5858 5859 5859 5860 5860
5864 5863 5862 5862 5861 5861 5860 5859 5858 5858 5857 5856 5856 5855 5855 5854 5853 5853 5852 5852 5852 5851 5851 5851 5851 5852 5852 5852 5852 5852 5853 5853 5854 5854 5855 5855 5855 5855 5856 5856 5857 5857 5858
5862 5861 5861 5860 5860 5859 5858 5857 5856 5856 5855 5854 5854 5853 5852 5852 5851 5851 5850 5849 5849 5849 5849 5849 5850 5850 5850 5850 5850 5851 5851 5851 5852 5852 5852 5852 5852 5853 5853 5854 5854 5854 5855
5861 5860 5859 5858 5858 5857 5856 5855 5855 5854 5853 5852 5851 5851 5850 5850 5849 5848 5848 5847 5847 5847 5847 5847 5847 5848 5848 5848 5848 5848 5849 5849 5849 5849 5850 5850 5850 5850 5851 5851 5851 5852 5852
5860 5859 5858 5857 5856 5855 5854 5853 5852 5852 5851 5850 5849 5848 5848 5847 5847 5846 5846 5845 5845 5845 5845 5845 5845 5845 5845 5845 5846 5846 5846 5847 5847 5847 5847 5848 5848 5848 5848 5849 5849 5849 5849
5858 5857 5856 5855 5854 5853 5852 5851 5850 5850 5849 5848 5847 5846 5845 5845 5844 5844 5843 5843 5843 5843 5843 5843 5843 5843 5843 5844 5844 5844 5844 5844 5844 5845 5845 5845 5845 5846 5846 5846 5845 5845 5845
5856 5855 5854 5853 5853 5852 5851 5850 5849 5848 5847 5846 5845 5844 5843 5843 5843 5842 5841 5841 5841 5841 5841 5841 5841 5841 5841 5842 5842 5842 5842 5842 5842 5842 5843 5843 5843 5843 5843 5843 5842 5841 5840
5855 5854 5853 5852 5851 5850 5849 5848 5847 5846 5845 5844 5843 5842 5841 5841 5841 5840 5840 5839 5839 5839 5839 5839 5839 5839 5839 5839 5839 5839 5840 5840 5840 5840 5840 5840 5840 5840 5840 5840 5839 5836 5835
5853 5852 5851 5850 5849 5848 5847 5846 5845 5844 5843 5842 5841 5840 5840 5839 5839 5838 5838 5838 5837 5837 5837 5837 5837 5837 5837 5837 5837 5837 5837 5837 5837 5838 5838 5838 5838 5838 5837 5837 5836 5835 5835
5852 5851 5850 5849 5848 5847 5846 5844 5843 5842 5841 5840 5839 5839 5838 5837 5837 5837 5836 5836 5835 5835 5835 5835 5835 5835 5835 5835 5835 5835 5835 5835 5835 5835 5835 5835 5835 5835 5835 5835 5834 5834 5834
5851 5849 5848 5847 5846 5845 5844 5842 5842 5841 5840 5839 5838 5837 5836 5836 5835 5835 5834 5834 5834 5834 5833 5833 5833 5833 5833 5832 5832 5832 5833 5833 5833 5833 5833 5832 5832 5832 5832 5832 5832 5832 5832
5849 5848 5847 5846 5844 5843 5842 5841 5840 5839 5838 5837 5836 5835 5834 5834 5833 5833 5833 5832 5832 5832 5832 5831 5831 5831 5830 5830 5830 5830 5830 5830 5830 5830 5830 5830 5830 5830 5830 5830 5830 5830 5830
5847 5846 5845 5844 5843 5842 5841 5839 5838 5837 5836 5835 5835 5834 5833 5832 5832 5831 5831 5831 5830 5830 5830 5829 5829 5829 5829 5829 5829 5828 5828 5829 5828 5828 5828 5828 5827 5827 5827 5827 5827 5827 5828
5845 5844 5843 5842 5841 5840 5839 5838 5837 5836 5835 5834 5833 5832 5831 5831 5830 5830 5829 5829 5829 5828 5828 5827 5827 5827 5827 5827 5826 5826 5826 5826 5826 5826 5826 5825 5825 5825 5825 5825 5825 5825 5825
5843 5842 5841 5840 5839 5838 5837 5836 5835 5834 5833 5833 5832 5831 5830 5829 5829 5828 5828 5827 5827 5827 5826 5826 5825 5825 5825 5824 5824 5824 5824 5824 5824 5824 5824 5824 5823 5823 5823 5823 5823 5822 5822
5841 5840 5839 5838 5837 5836 5835 5835 5834 5833 5832 5831 5830 5829 5829 5828 5827 5827 5826 5826 5826 5825 5825 5824 5824 5823 5823 5822 5822 5822 5821 5821 5821 5821 5821 5821 5821 5821 5821 5821 5820 5820 5820
5838 5837 5836 5835 5835 5834 5833 5832 5832 5831 5830 5829 5829 5828 5827 5826 5826 5825 5825 5824 5824 5824 5823 5823 5822 5822 5821 5821 5820 5820 5820 5819 5819 5819 5819 5819 5819 5819 5818 5818 5818 5818 5818